1998-067XU

Last updated on Sun Dec 14 2025 00:02:09 GMT+0000 (Coordinated Universal Time)

1 66908U 98067XU 25347.30591671 .00106014 00000+0 17364-2 0 9996 2 66908 51.6298 139.5715 0004465 229.4580 130.6021 15.51634533 1709
UTC large
Height (km)
Speed (km/s)
/
Latitude / Longitude
Inclination (degrees)
Orbital Period (minutes)
Azimuth
Elevation
Range (km)
Doppler Factor

Next 0 passes for location: London (51.5072 / 0.1276)

Sorry there are no passes over London.